Regional Weather Roundup
Issued by NWS Cleveland, OH

Home | Current Version | Previous Version | Graphics & Text | Print | Product List | Glossary On
Versions: 1 2 3 4 5 6 7 8 9 10 11 12 13 14 15 16 17 18 19 20 21 22 23 24 25 26 27 28 29 30 31 32 33 34 35 36 37 38 39 40 41 42 43 44 45 46 47 48 49 50
000
ASUS41 KCLE 222310
RWRCLE
OHIO REGIONAL WEATHER ROUNDUP
NATIONAL WEATHER SERVICE WILMINGTON, OH
700 PM EDT MON MAY 22 2017

NOTE: "FAIR" INDICATES FEW OR NO CLOUDS BELOW 12,000 FEET WITH NO
SIGNIFICANT WEATHER AND/OR OBSTRUCTIONS TO VISIBILITY.

OHZ001>008-015>018-024>027-034-035-043-044-230000-
   NORTHWEST OHIO

CITY           SKY/WX    TMP DP  RH WIND       PRES   REMARKS
DEFIANCE       FAIR      69  43  38 SW8       29.98F
FINDLAY        FAIR      71  44  37 W10       29.99F
TOLEDO EXPRESS FAIR      69  45  41 W8G17     29.98F
TOLEDO EXEC    FAIR      70  46  42 W12       29.99F
LIMA           FAIR      68  47  46 SW9       30.01F
$$

OHZ009>014-019>023-028>033-038-089-230000-
   NORTHEAST OHIO

CITY           SKY/WX    TMP DP  RH WIND       PRES   REMARKS
CLE-HOPKINS    PTSUNNY   69  46  43 SW9       30.02F
CLE-LAKEFRONT  FAIR      64  50  60 SW5       29.99F
CUY CO. ARPT   MOSUNNY   68  46  45 W10       30.01F
LORAIN-ELYRIA  FAIR      66  44  45 W9        30.01F
ASHTABULA      FAIR      64  41  42 W14       30.02S
AKRON-CANTON   PTSUNNY   65  44  46 W8        30.03S
WOOSTER        FAIR      65  46  50 W7        30.03F
MANSFIELD      FAIR      67  46  47 NW6       30.02F
YOUNGSTOWN     PTSUNNY   64  45  49 W10       30.02S
$$

OHZ042-051>053-060>062-070>072-077>081-230000-
  SOUTHWEST OHIO

CITY           SKY/WX    TMP DP  RH WIND       PRES   REMARKS
CINC-COVINGTON FAIR      69  43  38 CALM      30.03F
CINC-LUNKEN    FAIR      70  47  43 CALM      30.04F
HAMILTON       FAIR      71  47  42 CALM      30.03F
DAYTON         PTSUNNY   68  45  43 SW7       30.02F
WRIGHT-PAT AFB FAIR      70  44  38 CALM      30.02S
DAYTON GENERAL FAIR      69  44  40 SW6       30.02F
WILMINGTON     FAIR      66  45  46 N3        30.03F
$$

OHZ036-037-039>041-045>050-054>059-063>069-073>076-082>088-230000-
  CENTRAL AND SOUTHEAST OHIO

CITY           SKY/WX    TMP DP  RH WIND       PRES   REMARKS
COLUMBUS       PTSUNNY   67  44  43 CALM      30.02F
OSU AIRPORT    FAIR      67  47  48 NW7       30.02F
BOLTON FIELD   SUNNY     66  46  48 W5        30.03F
RICKENBACK AFB FAIR      65  44  47 CALM      30.03S
NEWARK         FAIR      66  44  45 NW5       30.02F
MARION         FAIR      68  44  42 NW6       30.02F
LANCASTER      FAIR      67  47  48 W3        30.04F
ZANESVILLE     FAIR      66  45  46 N7        30.04S
NEW PHILLY     FAIR      66  46  48 VRB7      30.04S
$$



USA.gov is the U.S. government's official web portal to all federal, state and local government web resources and services.